Regional Weather Roundup
Issued by NWS Northern Indiana

Home | Current Version | Previous Version | Graphics & Text | Print | Product List | Glossary On
Versions: 1 2 3 4 5 6 7 8 9 10 11 12 13 14 15 16 17 18 19 20 21 22 23 24 25 26 27 28 29 30 31 32 33 34 35 36 37 38 39 40 41 42 43 44 45 46 47 48 49 50
000
ASUS43 KIWX 191110
RWRIWX

KIWX WEATHER ROUNDUP
NATIONAL WEATHER SERVICE NORTHERN INDIANA
600 AM EST FRI DEC 19 2014

NOTE: "FAIR" INDICATES FEW OR NO CLOUDS BELOW 12,000 FEET WITH NO
SIGNIFICANT WEATHER AND/OR OBSTRUCTIONS TO VISIBILITY.

* THESE STATIONS ARE NOT UNDER NWS QUALITY CONTROL. THEY ALSO MAY NOT
  REPORT WEATHER SUCH AS PRECIPITATION OR FOG.

INZ001>027-191200-
NORTHERN INDIANA

CITY           SKY/WX    TMP DP  RH WIND       PRES   REMARKS
GARY*          CLOUDY    30  21  69 W6        30.28R WCI  24
VALPARAISO     CLOUDY    27  22  81 W9        30.26R WCI  18
MICHIGAN CITY* CLOUDY    30  23  74 SW3       30.26R
LAPORTE*       CLOUDY    30  26  87 W6        30.25R WCI  24
KNOX*          CLOUDY    27  22  80 W6        30.25R WCI  21
SOUTH BEND     CLOUDY    28  24  85 SW5       30.24S WCI  23
GOSHEN         CLOUDY    27  23  85 W6        30.24R WCI  20
MONTICELLO*    CLOUDY    25  22  87 W3        30.27R
LOGANSPORT*    CLOUDY    27  19  74 W3        30.27R
ROCHESTER*     PTCLDY    28  27  93 W6        30.25S WCI  22
WARSAW*        CLOUDY    27  23  86 W3        30.24S
ANGOLA*        CLOUDY    27  25  93 W5        30.21R WCI  21
FORT WAYNE     CLOUDY    26  21  81 W8        30.25R WCI  18
HUNTINGTON*    CLOUDY    26  22  85 W3        30.24S
PERU/GRISSOM   CLOUDY    26  24  94 W6        30.25R WCI  19
MARION*        CLOUDY    26  22  87 W6        30.26R WCI  19

$$
INZ028>050-191200-
CENTRAL INDIANA

CITY           SKY/WX    TMP DP  RH WIND       PRES   REMARKS
LAFAYETTE      CLOUDY    20  19  96 CALM      30.27F
KOKOMO*        CLOUDY    27  19  74 NW7       30.26R WCI  19
MUNCIE*        CLOUDY    26  20  77 NW5       30.24S WCI  20
INDIANAPOLIS   CLEAR     19  16  88 W7        30.26R WCI  10

$$
MIZ043>046-050>051-056>058-064>065-071>073-077>080-191200-
SOUTHWEST LOWER MICHIGAN

CITY           SKY/WX    TMP DP  RH WIND       PRES   REMARKS
BATTLE CREEK   CLOUDY    29  26  89 W3        30.21S FOG
BENTON HARBOR  CLOUDY    28  25  88 E5        30.24R WCI  23
COLDWATER*     CLOUDY    27  26  94 W7        30.21R WCI  20
HILLSDALE*     CLOUDY    28  27  97 W5        30.19S FOG     WCI  22
HOLLAND        CLEAR     21  17  84 CALM      30.25S
GRAND RAPIDS   CLOUDY    27  20  75 W6        30.24R WCI  20
KALAMAZOO      CLOUDY    28  24  85 NW8       30.23R WCI  20
STURGIS*       CLOUDY    27  25  93 W3        30.21S
THREE RIVERS*  FAIR      26  23  88 W3        30.24R

$$
OHZ001>008-015>018-024>025-191200-
NORTHWEST OHIO

CITY           SKY/WX    TMP DP  RH WIND       PRES   REMARKS
WAUSEON*       CLOUDY    28  27  93 W7        30.22R WCI  21
DEFIANCE       CLOUDY    29  24  82 W3        30.24R
FINDLAY        CLOUDY    29  24  82 W10       30.22R WCI  20
TOLEDO EXPRESS CLOUDY    29  25  85 W5        30.22R FOG     WCI  24
TOLEDO METCALF CLOUDY    30  25  81 W8        30.23R WCI  22
LIMA           CLOUDY    30  22  72 W8        30.23R WCI  22

$$
AND FOR LAKE MICHIGAN COASTAL AND OPEN LAKE BUOY OBSERVATIONS

STATION/POSITION TEMP    WIND        PRES    VSBY  WAVE
                 AIR SEA DIR/SP/G                  HT/PER
                 (F)     (DEG/KT/KT) (MB)    (MI)  (FT/S)
CALUMET HARBOR    29     290/  4/  7 1023.8S
SAINT JOSEPH      33     340/ 10/ 13 1024.7R

$$
&&



USA.gov is the U.S. government's official web portal to all federal, state and local government web resources and services.